This is the latest recevied weather packets stored in our database for station/object K5NCO. If no packets are shown the sender has not sent any weather packets the latest 1 day(s).
| Time | Temp. | Humidity | Pressure | Rain* | Wind** | Luminosity | Snow |
|---|---|---|---|---|---|---|---|
| 1836274680 | 27.78° C | 52% | 1017.5 hPa | 0 mm | 1.34 m/s, 105° | 0 W/m² | - |
| 1836274532 | 27.78° C | 53% | 1017.4 hPa | 0 mm | 1.34 m/s, 125° | 0 W/m² | - |
| 1836274378 | 28.33° C | 52% | 1017.7 hPa | 0 mm | 0.89 m/s, 75° | 0 W/m² | - |
| 1836274231 | 27.78° C | 53% | 1017.5 hPa | 0 mm | 1.34 m/s, 108° | 0 W/m² | - |
| 1836274076 | 28.33° C | 52% | 1017.6 hPa | 0 mm | 0.89 m/s, 77° | 0 W/m² | - |
| 1778045017 | 24.44° C | 92% | 1010.2 hPa | 0 mm | 2.68 m/s, 170° | 0 W/m² | - |
| 1778044715 | 24.44° C | 91% | 1010 hPa | 0 mm | 4.92 m/s, 126° | 0 W/m² | - |
| 1778044411 | 24.44° C | 91% | 1010 hPa | 0 mm | 3.58 m/s, 173° | 0 W/m² | - |
| 1778044108 | 24.44° C | 91% | 1009.9 hPa | 0 mm | 2.24 m/s, 146° | 0 W/m² | - |
| 1778043805 | 24.44° C | 91% | 1009.9 hPa | 0 mm | 2.68 m/s, 56° | 0 W/m² | - |
| 1778043502 | 24.44° C | 92% | 1009.9 hPa | 0 mm | 4.02 m/s, 116° | 0 W/m² | - |
| 1778043199 | 24.44° C | 92% | 1010.1 hPa | 0 mm | 2.24 m/s, 151° | 0 W/m² | - |
| 1778042896 | 24.44° C | 92% | 1009.8 hPa | 0 mm | 2.68 m/s, 193° | 0 W/m² | - |
| 1778042594 | 24.44° C | 92% | 1009.8 hPa | 0 mm | 1.79 m/s, 140° | 0 W/m² | - |
| 1778042290 | 24.44° C | 92% | 1009.9 hPa | 0 mm | 2.68 m/s, 157° | 0 W/m² | - |
| 1778041988 | 24.44° C | 92% | 1009.8 hPa | 0 mm | 3.13 m/s, 148° | 0 W/m² | - |
| 1778041686 | 24.44° C | 91% | 1009.8 hPa | 0 mm | 1.79 m/s, 157° | 0 W/m² | - |
| 1778041385 | 24.44° C | 91% | 1009.8 hPa | 0 mm | 2.24 m/s, 127° | 0 W/m² | - |
| 1778041083 | 24.44° C | 91% | 1009.8 hPa | 0 mm | 3.13 m/s, 115° | 0 W/m² | - |
| 1778040779 | 24.44° C | 91% | 1009.7 hPa | 0 mm | 2.24 m/s, 206° | 0 W/m² | - |
| 1778040477 | 24.44° C | 91% | 1009.7 hPa | 0 mm | 1.79 m/s, 160° | 0 W/m² | - |
| 1778040174 | 24.44° C | 90% | 1009.7 hPa | 0 mm | 1.34 m/s, 154° | 0 W/m² | - |
| 1778039871 | 25° C | 90% | 1009.6 hPa | 0 mm | 2.24 m/s, 138° | 0 W/m² | - |
| 1778039568 | 25° C | 89% | 1009.4 hPa | 0 mm | 3.13 m/s, 196° | 0 W/m² | - |
| 1778039264 | 25° C | 89% | 1009.5 hPa | 0 mm | 2.24 m/s, 123° | 0 W/m² | - |
* Rain latest hour (hover to see other rain measurements)
** Current wind speed in m/s (hover to see current wind gust speed)